Regional Weather Roundup
Issued by NWS Boston, MA

Home | Current Version | Previous Version | Text Only | Print | Product List | Glossary On
Versions: 1 2 3 4 5 6 7 8 9 10 11 12 13 14 15 16 17 18 19 20 21 22 23 24 25 26 27 28 29 30 31 32 33 34 35 36 37 38 39 40 41 42 43 44 45 46 47 48 49 50
000
ASUS41 KBOX 072110
RWRBOX

REGIONAL WEATHER ROUNDUP
NATIONAL WEATHER SERVICE TAUNTON MA
400 PM EST WED DEC 07 2016

NOTE:  "FAIR" INDICATES FEW OR NO CLOUDS BELOW 12,000 FEET WITH NO
SIGNIFICANT WEATHER AND/OR OBSTRUCTIONS TO VISIBILITY.

MAZALL-072200-
EASTERN MASSACHUSETTS

CITY           SKY/WX    TMP DP  RH WIND       PRES   REMARKS
BOSTON         CLOUDY    41  37  86 CALM      29.98R
BEVERLY        CLOUDY    39  38  96 CALM      29.96R
LAWRENCE       CLOUDY    39  36  89 W5        29.98R
BEDFORD        CLOUDY    38  34  85 CALM      29.96R
BLUE HILL        N/A     38  36  92 W5        29.94R
NORWOOD        CLOUDY    41  36  82 W3        29.97R
MARSHFIELD     CLOUDY    41  41 100 CALM      29.97R
PLYMOUTH       CLOUDY    42  39  89 NW5       29.97R
TAUNTON        PTCLDY    40  37  89 CALM      29.97R
NEW BEDFORD    CLOUDY    44  39  82 CALM      29.97R
$$

MAZALL-072200-
CAPE COD AND THE ISLANDS

CITY           SKY/WX    TMP DP  RH WIND       PRES   REMARKS
FALMOUTH       CLOUDY    43  39  87 MISG      29.95S
HYANNIS        CLOUDY    43  38  82 CALM      29.95R
CHATHAM        CLOUDY    45  38  76 CALM      29.96R
PROVINCETOWN   CLOUDY    43  39  86 CALM      29.97R
NANTUCKET      MOCLDY    44  39  82 N5        29.95R
MARTHAS VNYRD  MOCLDY    44  38  79 W3        29.97R
$$

MAZALL-072200-
CENTRAL AND WESTERN MASSACHUSETTS

CITY           SKY/WX    TMP DP  RH WIND       PRES   REMARKS
WORCESTER      CLOUDY    38  35  89 W8        29.94R
FITCHBURG      CLOUDY    39  34  82 CALM      29.97R
ORANGE         CLOUDY    37  36  96 CALM      29.96R
SPRINGFIELD    CLOUDY    40  36  86 W5        29.96R
WESTFIELD      CLOUDY    40  38  93 CALM      29.97R
NORTH ADAMS    MOCLDY    38  29  70 W10       29.96R WCI  31
PITTSFIELD     CLOUDY    36  33  89 NW5       29.93R
$$

RIZALL-072200-
RHODE ISLAND

CITY           SKY/WX    TMP DP  RH WIND       PRES   REMARKS
PROVIDENCE     CLOUDY    42  37  82 S3        29.98R
NEWPORT        CLOUDY    43  38  82 CALM      29.97R
BLOCK ISLAND   CLOUDY    43  39  86 CALM      29.98R
SMITHFIELD     CLOUDY    41  37  86 CALM      29.96R
WESTERLY       CLOUDY    45  38  76 SW3       29.98R
$$

CTZALL-072200-
CONNECTICUT

CITY           SKY/WX    TMP DP  RH WIND       PRES   REMARKS
BRADLEY INTL   CLOUDY    41  36  82 SW5       29.98R
HARTFORD       CLOUDY    42  37  82 SW5       29.98R
BRIDGEPORT     CLOUDY    45  39  81 W5        29.98S
DANBURY        CLOUDY    41  35  79 N5        29.98R
GROTON         CLOUDY    47  41  80 W6        29.97R
NEW HAVEN      CLOUDY    43  38  82 SW5       29.98R
CHESTER        CLOUDY    43  39  87 CALM      29.97R
MERIDEN        CLOUDY    44  37  76 W3        29.98S
WILLIMANTIC    CLOUDY    45  38  76 W7        29.98R
OXFORD         CLOUDY    39  34  81 CALM      29.98R
$$

MEZ002-015-021-024-NHZ003-005-008-011-012-014-VTZ005-008-072200-
NORTHERN NEW ENGLAND

CITY           SKY/WX    TMP DP  RH WIND       PRES   REMARKS
PORTLAND ME    CLOUDY    34  31  88 NW5       29.97R WCI  30
BANGOR ME      CLOUDY    29  25  85 CALM      29.95F
CONCORD NH     CLOUDY    36  33  89 CALM      29.96R
MANCHESTER NH  CLOUDY    36  33  89 S6        29.95R WCI  31
NASHUA NH      CLOUDY    36  35  96 CALM      29.97R
PORTSMOUTH NH  CLOUDY    36  33  90 W2        29.96R
JAFFREY NH     CLOUDY    36  33  89 S5        29.94R
KEENE NH       CLOUDY    37  36  93 SW5       29.97R
BURLINGTON VT  MOCLDY    37  33  85 S7        29.91R WCI  32
MT. WASHINGTON SNOWSHWR  18  18 100 W51         N/A  VSB 0   WCI  -6
$$

NYZ052-076-072200-
EASTERN NEW YORK

CITY           SKY/WX    TMP DP  RH WIND       PRES   REMARKS
ALBANY         MOCLDY    38  35  89 CALM      29.98R
NEW YORK CITY  CLOUDY    47  39  74 NW8       29.98S
$$

ANZALL-072200-
MARINE OBSERVATIONS

STATION/POSITION TIME  TEMP    WIND        PRES    VSBY  WAVE
                       AIR SEA DIR/SP/G                  HT/PER
                 (UTC) (F)     (DEG/KT/KT) (MB)    (MI)  (FT/S)
BOSTON BUOY      2050   42 50  280/ 10/ 12 1013.4R         2/ 4
BUZZARDS BAY     2000   43     350/  3/  4 1014.8R
NANTUCKET SOUND  NOT AVBL
MASS BAY-STELLWA 2004   42 48  300/  4/  6 1013.5R  1 7/8  1/ 4
ISLE OF SHOALS   2000   38     330/  5/  6 1014.0R
S OF BLOCK IS    2055      54                N/A           4/ 8
$$

......................KEY.........................
  SKY/WX - SKY CONDITION/PRESENT WEATHER
  TMP    - TEMPERATURE IN FAHRENHEIT
  DWPT   - DEWPOINT IN FAHRENHEIT
  RH     - RELATIVE HUMIDITY IN PERCENT
  WIND   - DIRECTION AND SPEED IN MPH
  PRES   - MEAN SEA LEVEL PRESSURE IN INCHES OF HG
  WCI    - WIND CHILL INDEX
  VSB    - VISIBILITY IN MILES
  HX     - HEAT INDEX
  TC     - TEMPERATURE IN CELSIUS
  VRB    - VARIABLE WIND DIRECTION
  N/A    - NOT AVAILABLE



USA.gov is the U.S. government's official web portal to all federal, state and local government web resources and services.